• In Portugal
  • List of Countries
  • For 7 days
  • Water Temperature
  • Satellite Maps
  • Weather Map
  • Weather Widgets
  • user-avatar
    Login

    Hourly Weather Stanovoy

    Today, 21 September, Friday

    Time Temperature Precipitation Wind Pressure Humidity
    00:00 +16°C° 0 mm 1 mps 745 mmHg 90%
    01:00 +15°C° 0 mm 1 mps 745 mmHg 91%
    02:00 +15°C° 0 mm 1 mps 745 mmHg 91%
    03:00 +15°C° 0 mm 1 mps 745 mmHg 92%
    04:00 +14°C° 0 mm 1 mps 745 mmHg 92%
    05:00 +14°C° 0 mm 1 mps 745 mmHg 92%
    06:00 +16°C° 0 mm 1 mps 746 mmHg 87%
    07:00 +18°C° 0 mm 1 mps 746 mmHg 82%
    08:00 +19°C° 0 mm 1 mps 746 mmHg 77%
    09:00 +21°C° 0 mm 1 mps 746 mmHg 70%
    10:00 +23°C° 0 mm 1 mps 746 mmHg 63%
    11:00 +24°C° 0 mm 1 mps 746 mmHg 56%
    12:00 +25°C° 0 mm 1 mps 746 mmHg 54%
    13:00 +25°C° 0 mm 1 mps 746 mmHg 51%
    14:00 +26°C° 0 mm 1 mps 746 mmHg 49%
    15:00 +25°C° 0 mm 1 mps 746 mmHg 54%
    16:00 +24°C° 0 mm 1 mps 746 mmHg 59%
    17:00 +23°C° 0 mm 1 mps 746 mmHg 64%
    18:00 +22°C° 0 mm 1 mps 746 mmHg 67%
    19:00 +21°C° 0 mm 1 mps 746 mmHg 70%
    20:00 +19°C° 0 mm 2 mps 746 mmHg 73%
    21:00 +18°C° 0 mm 2 mps 746 mmHg 75%
    22:00 +18°C° 0 mm 2 mps 746 mmHg 77%
    23:00 +17°C° 0 mm 2 mps 746 mmHg 79%

    Tomorrow, 22 September, Saturday

    Time Temperature Precipitation Wind Pressure Humidity
    00:00 +17°C° 0 mm 2 mps 746 mmHg 80%
    01:00 +17°C° 0 mm 2 mps 746 mmHg 82%
    02:00 +17°C° 0 mm 2 mps 746 mmHg 83%
    03:00 +17°C° 0 mm 2 mps 745 mmHg 83%
    04:00 +16°C° 0 mm 2 mps 745 mmHg 83%
    05:00 +16°C° 0 mm 3 mps 745 mmHg 83%
    06:00 +17°C° 0 mm 3 mps 745 mmHg 78%
    07:00 +19°C° 0 mm 4 mps 745 mmHg 73%
    08:00 +20°C° 0 mm 4 mps 745 mmHg 67%
    09:00 +21°C° 0 mm 4 mps 745 mmHg 62%
    10:00 +23°C° 0 mm 5 mps 744 mmHg 57%
    11:00 +25°C° 0 mm 5 mps 744 mmHg 52%
    12:00 +26°C° 0 mm 6 mps 744 mmHg 51%
    13:00 +26°C° 0 mm 6 mps 743 mmHg 49%
    14:00 +27°C° 0 mm 6 mps 743 mmHg 48%
    15:00 +26°C° 0 mm 5 mps 742 mmHg 53%
    16:00 +23°C° 0 mm 4 mps 742 mmHg 58%
    17:00 +22°C° 0 mm 4 mps 741 mmHg 63%
    18:00 +22°C° 0 mm 4 mps 741 mmHg 61%
    19:00 +21°C° 0 mm 5 mps 740 mmHg 59%
    20:00 +21°C° 0 mm 5 mps 740 mmHg 57%
    21:00 +20°C° 0 mm 5 mps 740 mmHg 57%
    22:00 +20°C° 0 mm 5 mps 740 mmHg 56%
    23:00 +19°C° 0 mm 5 mps 739 mmHg 56%

    Day after tomorrow, 23 September, Sunday

    Time Temperature Precipitation Wind Pressure Humidity
    00:00 +19°C° 0 mm 5 mps 739 mmHg 58%
    01:00 +18°C° 0 mm 4 mps 738 mmHg 61%
    02:00 +17°C° 0 mm 4 mps 738 mmHg 64%
    03:00 +17°C° 0.1 mm 4 mps 738 mmHg 67%
    04:00 +15°C° 0.1 mm 4 mps 738 mmHg 70%
    05:00 +15°C° 0.1 mm 4 mps 737 mmHg 73%
    06:00 +14°C° 0.7 mm 4 mps 737 mmHg 77%
    07:00 +13°C° 0.7 mm 4 mps 737 mmHg 82%
    08:00 +12°C° 0.7 mm 4 mps 737 mmHg 86%
    09:00 +10°C° 1.4 mm 5 mps 737 mmHg 87%
    10:00 +9°C° 1.4 mm 6 mps 737 mmHg 88%
    11:00 +7°C° 1.4 mm 6 mps 737 mmHg 89%
    12:00 +8°C° 0.9 mm 6 mps 738 mmHg 87%
    13:00 +9°C° 0.9 mm 5 mps 738 mmHg 86%
    14:00 +9°C° 0.9 mm 5 mps 738 mmHg 85%
    15:00 +10°C° 0.1 mm 4 mps 739 mmHg 84%
    16:00 +10°C° 0.1 mm 4 mps 739 mmHg 84%
    17:00 +11°C° 0.1 mm 4 mps 739 mmHg 84%
    18:00 +10°C° 0 mm 4 mps 739 mmHg 87%
    19:00 +8°C° 0 mm 4 mps 739 mmHg 89%
    20:00 +9°C° 0 mm 3 mps 739 mmHg 91%
    21:00 +8°C° 0 mm 3 mps 739 mmHg 92%
    22:00 +8°C° 0 mm 3 mps 740 mmHg 92%
    23:00 +8°C° 0 mm 3 mps 740 mmHg 92%

    24 September, Monday

    Time Temperature Precipitation Wind Pressure Humidity
    00:00 +7°C° 0 mm 3 mps 740 mmHg 93%
    01:00 +7°C° 0 mm 3 mps 740 mmHg 94%
    02:00 +7°C° 0 mm 3 mps 740 mmHg 95%
    03:00 +5°C° 0 mm 3 mps 740 mmHg 95%
    04:00 +5°C° 0 mm 3 mps 740 mmHg 96%
    05:00 +5°C° 0 mm 3 mps 740 mmHg 96%
    06:00 +7°C° 0 mm 3 mps 740 mmHg 93%
    07:00 +8°C° 0 mm 3 mps 740 mmHg 89%
    08:00 +9°C° 0 mm 3 mps 740 mmHg 86%
    09:00 +10°C° 0 mm 4 mps 740 mmHg 79%
    10:00 +12°C° 0 mm 4 mps 740 mmHg 72%
    11:00 +13°C° 0 mm 4 mps 740 mmHg 66%
    12:00 +13°C° 0 mm 4 mps 740 mmHg 64%
    13:00 +14°C° 0 mm 4 mps 740 mmHg 62%
    14:00 +14°C° 0 mm 4 mps 739 mmHg 60%
    15:00 +13°C° 0 mm 4 mps 739 mmHg 63%
    16:00 +12°C° 0 mm 4 mps 738 mmHg 66%
    17:00 +12°C° 0 mm 4 mps 737 mmHg 69%
    18:00 +10°C° 0.3 mm 5 mps 736 mmHg 71%
    19:00 +10°C° 0.3 mm 6 mps 735 mmHg 73%
    20:00 +10°C° 0.3 mm 7 mps 735 mmHg 75%
    21:00 +10°C° 2.3 mm 8 mps 733 mmHg 78%
    22:00 +8°C° 2.3 mm 9 mps 732 mmHg 81%
    23:00 +8°C° 2.3 mm 10 mps 731 mmHg 84%

    25 September, Tuesday

    Time Temperature Precipitation Wind Pressure Humidity
    00:00 +9°C° 1.1 mm 10 mps 730 mmHg 85%
    01:00 +9°C° 1.1 mm 10 mps 729 mmHg 86%
    02:00 +11°C° 1.1 mm 10 mps 729 mmHg 87%
    03:00 +10°C° 0.2 mm 9 mps 728 mmHg 86%
    04:00 +9°C° 0.2 mm 8 mps 728 mmHg 85%
    05:00 +8°C° 0.2 mm 7 mps 727 mmHg 84%
    06:00 +8°C° 0.1 mm 7 mps 727 mmHg 83%
    07:00 +7°C° 0.1 mm 8 mps 727 mmHg 83%
    08:00 +7°C° 0.1 mm 8 mps 727 mmHg 83%
    09:00 +7°C° 0.2 mm 8 mps 726 mmHg 82%
    10:00 +7°C° 0.2 mm 8 mps 726 mmHg 81%
    11:00 +7°C° 0.2 mm 8 mps 726 mmHg 81%
    12:00 +7°C° 0.2 mm 8 mps 726 mmHg 80%
    13:00 +7°C° 0.2 mm 8 mps 726 mmHg 80%
    14:00 +7°C° 0.2 mm 8 mps 725 mmHg 80%
    15:00 +8°C° 0.1 mm 7 mps 725 mmHg 82%
    16:00 +8°C° 0.1 mm 6 mps 725 mmHg 84%
    17:00 +7°C° 0.1 mm 5 mps 725 mmHg 86%
    18:00 +7°C° 0.5 mm 5 mps 726 mmHg 88%
    19:00 +7°C° 0.5 mm 5 mps 726 mmHg 90%
    20:00 +7°C° 0.5 mm 4 mps 726 mmHg 91%
    21:00 +6°C° 0.7 mm 5 mps 727 mmHg 91%
    22:00 +5°C° 0.7 mm 6 mps 728 mmHg 90%
    23:00 +5°C° 0.7 mm 7 mps 728 mmHg 89%

    26 September, Wednesday

    Time Temperature Precipitation Wind Pressure Humidity
    00:00 +5°C° 0.4 mm 7 mps 729 mmHg 89%
    01:00 +4°C° 0.4 mm 8 mps 730 mmHg 88%
    02:00 +4°C° 0.4 mm 8 mps 730 mmHg 87%
    03:00 +4°C° 0.2 mm 8 mps 731 mmHg 87%
    04:00 +2°C° 0.2 mm 8 mps 732 mmHg 86%
    05:00 +2°C° 0.2 mm 8 mps 733 mmHg 86%
    06:00 +2°C° 0.1 mm 8 mps 734 mmHg 85%
    07:00 +3°C° 0.1 mm 7 mps 734 mmHg 84%
    08:00 +3°C° 0.1 mm 7 mps 735 mmHg 82%
    09:00 +3°C° 0.1 mm 7 mps 736 mmHg 80%
    10:00 +4°C° 0.1 mm 7 mps 737 mmHg 78%
    11:00 +4°C° 0.1 mm 7 mps 737 mmHg 77%
    12:00 +4°C° 0.1 mm 6 mps 738 mmHg 76%
    13:00 +4°C° 0.1 mm 6 mps 739 mmHg 76%
    14:00 +5°C° 0.1 mm 6 mps 740 mmHg 75%
    15:00 +5°C° 0.1 mm 5 mps 740 mmHg 77%
    16:00 +5°C° 0.1 mm 5 mps 741 mmHg 78%
    17:00 +5°C° 0.1 mm 4 mps 741 mmHg 80%
    18:00 +5°C° 0 mm 4 mps 742 mmHg 81%
    19:00 +4°C° 0 mm 4 mps 743 mmHg 83%
    20:00 +4°C° 0 mm 4 mps 743 mmHg 85%
    21:00 +3°C° 0 mm 4 mps 744 mmHg 86%
    22:00 +3°C° 0 mm 4 mps 744 mmHg 87%
    23:00 +2°C° 0 mm 3 mps 745 mmHg 88%
    Show more